View from above orbital plane
|
View from above satellite
|
Ground track
|
The orbit data is extracted from the following two-line orbital elements,
1 28541U 05004C 21022.17416073 0.00000000 00000-0 00000-0 0 08
2 28541 63.4208 73.7372 0382069 358.6975 1.3025 13.40814198 05
Epoch (UTC): | 22 January 2021 04:10:47 |
Eccentricity: | 0.0382069 |
inclination: | 63.4208° |
perigee height: | 820 km |
apogee height: | 1392 km |
right ascension of ascending node: | 73.7372° |
argument of perigee: | 358.6975° |
revolutions per day: | 13.40814198 |
mean anomaly at epoch: | 1.3025° |
orbit number at epoch: | 0 |
The dashed part of the orbit path shows where the satellite is in the earth's shadow,
|
|